Year,Month,Day,Hour,Minute,Value (Times are PST for temperature in C)
2018,10,21,00,00,9.40
2018,10,21,00,01,9.40
2018,10,21,00,02,9.40
2018,10,21,00,03,9.30
2018,10,21,00,04,9.30
2018,10,21,00,05,9.20
2018,10,21,00,06,9.20
2018,10,21,00,07,9.10
2018,10,21,00,08,9.10
2018,10,21,00,09,9.10
2018,10,21,00,10,9.10
2018,10,21,00,11,9.20
2018,10,21,00,12,9.20
2018,10,21,00,13,9.30
2018,10,21,00,14,9.30
2018,10,21,00,15,9.30
2018,10,21,00,16,9.30
2018,10,21,00,17,9.20
2018,10,21,00,18,9.30
2018,10,21,00,19,9.50
2018,10,21,00,20,9.60
2018,10,21,00,21,9.60
2018,10,21,00,22,9.70
2018,10,21,00,23,9.90
2018,10,21,00,24,10.00
2018,10,21,00,25,10.10
2018,10,21,00,26,10.10
2018,10,21,00,27,10.10
2018,10,21,00,28,10.10
2018,10,21,00,29,9.90
2018,10,21,00,30,9.80
2018,10,21,00,31,9.60
2018,10,21,00,32,9.60
2018,10,21,00,33,9.60
2018,10,21,00,34,9.60
2018,10,21,00,35,9.60
2018,10,21,00,36,9.60
2018,10,21,00,37,9.50
2018,10,21,00,38,9.60
2018,10,21,00,39,9.70
2018,10,21,00,40,9.70
2018,10,21,00,41,9.60
2018,10,21,00,42,9.60
2018,10,21,00,43,9.70
2018,10,21,00,44,9.70
2018,10,21,00,45,9.70
2018,10,21,00,46,9.80
2018,10,21,00,47,9.80
2018,10,21,00,48,9.80
2018,10,21,00,49,9.70
2018,10,21,00,50,9.70
2018,10,21,00,51,9.70
2018,10,21,00,52,9.70
2018,10,21,00,53,9.70
2018,10,21,00,54,9.70
2018,10,21,00,55,9.80
2018,10,21,00,56,9.90
2018,10,21,00,57,10.00
2018,10,21,00,58,10.10
2018,10,21,00,59,10.20
2018,10,21,01,00,10.30
2018,10,21,01,01,10.30
2018,10,21,01,02,10.40
2018,10,21,01,03,10.50
2018,10,21,01,04,10.60
2018,10,21,01,05,10.60
2018,10,21,01,06,10.70
2018,10,21,01,07,10.70
2018,10,21,01,08,10.80
2018,10,21,01,09,10.80
2018,10,21,01,10,10.80
2018,10,21,01,11,10.80
2018,10,21,01,12,10.90
2018,10,21,01,13,10.90
2018,10,21,01,14,10.90
2018,10,21,01,15,10.90
2018,10,21,01,16,10.90
2018,10,21,01,17,10.90
2018,10,21,01,18,10.90
2018,10,21,01,19,10.90
2018,10,21,01,20,10.90
2018,10,21,01,21,10.90
2018,10,21,01,22,10.90
2018,10,21,01,23,10.90
2018,10,21,01,24,10.90
2018,10,21,01,25,10.80
2018,10,21,01,26,10.80
2018,10,21,01,27,10.80
2018,10,21,01,28,10.80
2018,10,21,01,29,10.80
2018,10,21,01,30,10.80
2018,10,21,01,31,10.80
2018,10,21,01,32,10.70
2018,10,21,01,33,10.70
2018,10,21,01,34,10.70
2018,10,21,01,35,10.60
2018,10,21,01,36,10.60
2018,10,21,01,37,10.50
2018,10,21,01,38,10.50
2018,10,21,01,39,10.40
2018,10,21,01,40,10.40
2018,10,21,01,41,10.40
2018,10,21,01,42,10.30
2018,10,21,01,43,10.30
2018,10,21,01,44,10.30
2018,10,21,01,45,10.30
2018,10,21,01,46,10.30
2018,10,21,01,47,10.30
2018,10,21,01,48,10.20
2018,10,21,01,49,10.20
2018,10,21,01,50,10.20
2018,10,21,01,51,10.20
2018,10,21,01,52,10.10
2018,10,21,01,53,10.10
2018,10,21,01,54,10.10
2018,10,21,01,55,10.10
2018,10,21,01,56,10.10
2018,10,21,01,57,10.10
2018,10,21,01,58,10.10
2018,10,21,01,59,10.10
2018,10,21,02,00,10.10
2018,10,21,02,01,10.10
2018,10,21,02,02,10.10
2018,10,21,02,03,10.10
2018,10,21,02,04,10.10
2018,10,21,02,05,10.00
2018,10,21,02,06,9.90
2018,10,21,02,07,9.90
2018,10,21,02,08,9.80
2018,10,21,02,09,9.60
2018,10,21,02,10,9.50
2018,10,21,02,11,9.40
2018,10,21,02,12,9.30
2018,10,21,02,13,9.30
2018,10,21,02,14,9.20
2018,10,21,02,15,9.20
2018,10,21,02,16,9.20
2018,10,21,02,17,9.20
2018,10,21,02,18,9.30
2018,10,21,02,19,9.30
2018,10,21,02,20,9.30
2018,10,21,02,21,9.30
2018,10,21,02,22,9.30
2018,10,21,02,23,9.30
2018,10,21,02,24,9.30
2018,10,21,02,25,9.40
2018,10,21,02,26,9.40
2018,10,21,02,27,9.40
2018,10,21,02,28,9.40
2018,10,21,02,29,9.50
2018,10,21,02,30,9.50
2018,10,21,02,31,9.50
2018,10,21,02,32,9.40
2018,10,21,02,33,9.40
2018,10,21,02,34,9.40
2018,10,21,02,35,9.40
2018,10,21,02,36,9.40
2018,10,21,02,37,9.40
2018,10,21,02,38,9.40
2018,10,21,02,39,9.50
2018,10,21,02,40,9.50
2018,10,21,02,41,9.50
2018,10,21,02,42,9.50
2018,10,21,02,43,9.50
2018,10,21,02,44,9.60
2018,10,21,02,45,9.60
2018,10,21,02,46,9.60
2018,10,21,02,47,9.60
2018,10,21,02,48,9.60
2018,10,21,02,49,9.60
2018,10,21,02,50,9.70
2018,10,21,02,51,9.70
2018,10,21,02,52,9.70
2018,10,21,02,53,9.70
2018,10,21,02,54,9.70
2018,10,21,02,55,9.70
2018,10,21,02,56,9.70
2018,10,21,02,57,9.70
2018,10,21,02,58,9.70
2018,10,21,02,59,9.70
2018,10,21,03,00,9.70
2018,10,21,03,01,9.70
2018,10,21,03,02,9.70
2018,10,21,03,03,9.70
2018,10,21,03,04,9.70
2018,10,21,03,05,9.70
2018,10,21,03,06,9.70
2018,10,21,03,07,9.70
2018,10,21,03,08,9.70
2018,10,21,03,09,9.70
2018,10,21,03,10,9.70
2018,10,21,03,11,9.70
2018,10,21,03,12,9.70
2018,10,21,03,13,9.70
2018,10,21,03,14,9.80
2018,10,21,03,15,9.80
2018,10,21,03,16,9.80
2018,10,21,03,17,9.90
2018,10,21,03,18,9.90
2018,10,21,03,19,9.90
2018,10,21,03,20,9.90
2018,10,21,03,21,10.00
2018,10,21,03,22,10.00
2018,10,21,03,23,10.00
2018,10,21,03,24,9.90
2018,10,21,03,25,9.90
2018,10,21,03,26,9.90
2018,10,21,03,27,9.80
2018,10,21,03,28,9.80
2018,10,21,03,29,9.80
2018,10,21,03,30,9.80
2018,10,21,03,31,9.80
2018,10,21,03,32,9.80
2018,10,21,03,33,9.80
2018,10,21,03,34,9.80
2018,10,21,03,35,9.80
2018,10,21,03,36,9.80
2018,10,21,03,37,9.70
2018,10,21,03,38,9.70
2018,10,21,03,39,9.60
2018,10,21,03,40,9.60
2018,10,21,03,41,9.60
2018,10,21,03,42,9.60
2018,10,21,03,43,9.60
2018,10,21,03,44,9.60
2018,10,21,03,45,9.60
2018,10,21,03,46,9.60
2018,10,21,03,47,9.50
2018,10,21,03,48,9.50
2018,10,21,03,49,9.50
2018,10,21,03,50,9.50
2018,10,21,03,51,9.40
2018,10,21,03,52,9.30
2018,10,21,03,53,9.30
2018,10,21,03,54,9.10
2018,10,21,03,55,9.00
2018,10,21,03,56,8.90
2018,10,21,03,57,8.80
2018,10,21,03,58,8.80
2018,10,21,03,59,8.80
2018,10,21,04,00,8.80
2018,10,21,04,01,8.90
2018,10,21,04,02,8.90
2018,10,21,04,03,8.90
2018,10,21,04,04,8.80
2018,10,21,04,05,8.80
2018,10,21,04,06,8.80
2018,10,21,04,07,8.70
2018,10,21,04,08,8.60
2018,10,21,04,09,8.60
2018,10,21,04,10,8.50
2018,10,21,04,11,8.50
2018,10,21,04,12,8.40
2018,10,21,04,13,8.40
2018,10,21,04,14,8.40
2018,10,21,04,15,8.30
2018,10,21,04,16,8.40
2018,10,21,04,17,8.40
2018,10,21,04,18,8.40
2018,10,21,04,19,8.50
2018,10,21,04,20,8.50
2018,10,21,04,21,8.50
2018,10,21,04,22,8.50
2018,10,21,04,23,8.50
2018,10,21,04,24,8.50
2018,10,21,04,25,8.50
2018,10,21,04,26,8.40
2018,10,21,04,27,8.40
2018,10,21,04,28,8.40
2018,10,21,04,29,8.40
2018,10,21,04,30,8.40
2018,10,21,04,31,8.40
2018,10,21,04,32,8.30
2018,10,21,04,33,8.30
2018,10,21,04,34,8.30
2018,10,21,04,35,8.20
2018,10,21,04,36,8.20
2018,10,21,04,37,8.10
2018,10,21,04,38,8.10
2018,10,21,04,39,8.10
2018,10,21,04,40,8.00
2018,10,21,04,41,8.00
2018,10,21,04,42,7.90
2018,10,21,04,43,7.90
2018,10,21,04,44,8.00
2018,10,21,04,45,8.00
2018,10,21,04,46,8.10
2018,10,21,04,47,8.10
2018,10,21,04,48,8.20
2018,10,21,04,49,8.20
2018,10,21,04,50,8.30
2018,10,21,04,51,8.40
2018,10,21,04,52,8.40
2018,10,21,04,53,8.50
2018,10,21,04,54,8.60
2018,10,21,04,55,8.60
2018,10,21,04,56,8.60
2018,10,21,04,57,8.50
2018,10,21,04,58,8.50
2018,10,21,04,59,8.50
2018,10,21,05,00,8.40
2018,10,21,05,01,8.40
2018,10,21,05,02,8.30
2018,10,21,05,03,8.30
2018,10,21,05,04,8.30
2018,10,21,05,05,8.20
2018,10,21,05,06,8.20
2018,10,21,05,07,8.20
2018,10,21,05,08,8.10
2018,10,21,05,09,8.10
2018,10,21,05,10,8.10
2018,10,21,05,11,8.20
2018,10,21,05,12,8.20
2018,10,21,05,13,8.20
2018,10,21,05,14,8.20
2018,10,21,05,15,8.20
2018,10,21,05,16,8.20
2018,10,21,05,17,8.30
2018,10,21,05,18,8.30
2018,10,21,05,19,8.30
2018,10,21,05,20,8.40
2018,10,21,05,21,8.40
2018,10,21,05,22,8.40
2018,10,21,05,23,8.40
2018,10,21,05,24,8.40
2018,10,21,05,25,8.40
2018,10,21,05,26,8.40
2018,10,21,05,27,8.40
2018,10,21,05,28,8.40
2018,10,21,05,29,8.40
2018,10,21,05,30,8.40
2018,10,21,05,31,8.40
2018,10,21,05,32,8.50
2018,10,21,05,33,8.50
2018,10,21,05,34,8.60
2018,10,21,05,35,8.60
2018,10,21,05,36,8.60
2018,10,21,05,37,8.60
2018,10,21,05,38,8.60
2018,10,21,05,39,8.60
2018,10,21,05,40,8.60
2018,10,21,05,41,8.50
2018,10,21,05,42,8.50
2018,10,21,05,43,8.50
2018,10,21,05,44,8.50
2018,10,21,05,45,8.60
2018,10,21,05,46,8.60
2018,10,21,05,47,8.60
2018,10,21,05,48,8.70
2018,10,21,05,49,8.80
2018,10,21,05,50,8.80
2018,10,21,05,51,8.80
2018,10,21,05,52,8.90
2018,10,21,05,53,8.90
2018,10,21,05,54,8.90
2018,10,21,05,55,8.90
2018,10,21,05,56,8.90
2018,10,21,05,57,9.00
2018,10,21,05,58,9.00
2018,10,21,05,59,9.00
2018,10,21,06,00,9.00
2018,10,21,06,01,9.00
2018,10,21,06,02,9.00
2018,10,21,06,03,8.90
2018,10,21,06,04,8.90
2018,10,21,06,05,9.00
2018,10,21,06,06,9.00
2018,10,21,06,07,9.00
2018,10,21,06,08,9.00
2018,10,21,06,09,9.00
2018,10,21,06,10,9.00
2018,10,21,06,11,9.00
2018,10,21,06,12,9.00
2018,10,21,06,13,9.00
2018,10,21,06,14,9.00
2018,10,21,06,15,9.00
2018,10,21,06,16,9.00
2018,10,21,06,17,9.00
2018,10,21,06,18,9.00
2018,10,21,06,19,9.00
2018,10,21,06,20,9.10
2018,10,21,06,21,9.10
2018,10,21,06,22,9.10
2018,10,21,06,23,9.10
2018,10,21,06,24,9.20
2018,10,21,06,25,9.20
2018,10,21,06,26,9.20
2018,10,21,06,27,9.20
2018,10,21,06,28,9.20
2018,10,21,06,29,9.20
2018,10,21,06,30,9.20
2018,10,21,06,31,9.20
2018,10,21,06,32,9.20
2018,10,21,06,33,9.20
2018,10,21,06,34,9.10
2018,10,21,06,35,9.10
2018,10,21,06,36,9.10
2018,10,21,06,37,9.10
2018,10,21,06,38,9.00
2018,10,21,06,39,9.00
2018,10,21,06,40,9.00
2018,10,21,06,41,8.90
2018,10,21,06,42,8.90
2018,10,21,06,43,8.90
2018,10,21,06,44,8.90
2018,10,21,06,45,8.90
2018,10,21,06,46,8.90
2018,10,21,06,47,8.90
2018,10,21,06,48,8.80
2018,10,21,06,49,8.80
2018,10,21,06,50,8.80
2018,10,21,06,51,8.80
2018,10,21,06,52,8.80
2018,10,21,06,53,8.80
2018,10,21,06,54,8.80
2018,10,21,06,55,8.80
2018,10,21,06,56,8.70
2018,10,21,06,57,8.70
2018,10,21,06,58,8.70
2018,10,21,06,59,8.70
2018,10,21,07,00,8.70
2018,10,21,07,01,8.80
2018,10,21,07,02,8.80
2018,10,21,07,03,8.80
2018,10,21,07,04,8.80
2018,10,21,07,05,8.80
2018,10,21,07,06,8.80
2018,10,21,07,07,8.80
2018,10,21,07,08,8.90
2018,10,21,07,09,8.90
2018,10,21,07,10,8.90
2018,10,21,07,11,8.90
2018,10,21,07,12,8.90
2018,10,21,07,13,8.80
2018,10,21,07,14,8.80
2018,10,21,07,15,8.80
2018,10,21,07,16,8.80
2018,10,21,07,17,8.70
2018,10,21,07,18,8.70
2018,10,21,07,19,8.70
2018,10,21,07,20,8.70
2018,10,21,07,21,8.70
2018,10,21,07,22,8.70
2018,10,21,07,23,8.70
2018,10,21,07,24,8.70
2018,10,21,07,25,8.70
2018,10,21,07,26,8.70
2018,10,21,07,27,8.70
2018,10,21,07,28,8.80
2018,10,21,07,29,8.70
2018,10,21,07,30,8.70
2018,10,21,07,31,8.70
2018,10,21,07,32,8.70
2018,10,21,07,33,8.70
2018,10,21,07,34,8.70
2018,10,21,07,35,8.60
2018,10,21,07,36,8.60
2018,10,21,07,37,8.60
2018,10,21,07,38,8.50
2018,10,21,07,39,8.50
2018,10,21,07,40,8.40
2018,10,21,07,41,8.20
2018,10,21,07,42,7.90
2018,10,21,07,43,7.60
2018,10,21,07,44,7.40
2018,10,21,07,45,7.20
2018,10,21,07,46,7.00
2018,10,21,07,47,6.90
2018,10,21,07,48,6.80
2018,10,21,07,49,6.80
2018,10,21,07,50,6.80
2018,10,21,07,51,6.80
2018,10,21,07,52,6.80
2018,10,21,07,53,6.80
2018,10,21,07,54,6.80
2018,10,21,07,55,6.80
2018,10,21,07,56,6.80
2018,10,21,07,57,6.80
2018,10,21,07,58,6.80
2018,10,21,07,59,6.90
2018,10,21,08,00,6.90
2018,10,21,08,01,6.90
2018,10,21,08,02,7.00
2018,10,21,08,03,7.00
2018,10,21,08,04,7.10
2018,10,21,08,05,7.10
2018,10,21,08,06,7.10
2018,10,21,08,07,7.20
2018,10,21,08,08,7.20
2018,10,21,08,09,7.20
2018,10,21,08,10,7.20
2018,10,21,08,11,7.30
2018,10,21,08,12,7.30
2018,10,21,08,13,7.30
2018,10,21,08,14,7.40
2018,10,21,08,15,7.40
2018,10,21,08,16,7.50
2018,10,21,08,17,7.50
2018,10,21,08,18,7.50
2018,10,21,08,19,7.50
2018,10,21,08,20,7.50
2018,10,21,08,21,7.50
2018,10,21,08,22,7.50
2018,10,21,08,23,7.50
2018,10,21,08,24,7.60
2018,10,21,08,25,7.60
2018,10,21,08,26,7.70
2018,10,21,08,27,7.70
2018,10,21,08,28,7.80
2018,10,21,08,29,7.80
2018,10,21,08,30,7.80
2018,10,21,08,31,7.80
2018,10,21,08,32,7.90
2018,10,21,08,33,7.90
2018,10,21,08,34,7.90
2018,10,21,08,35,8.00
2018,10,21,08,36,8.00
2018,10,21,08,37,8.00
2018,10,21,08,38,8.00
2018,10,21,08,39,8.10
2018,10,21,08,40,8.10
2018,10,21,08,41,8.10
2018,10,21,08,42,8.10
2018,10,21,08,43,8.10
2018,10,21,08,44,8.20
2018,10,21,08,45,8.30
2018,10,21,08,46,8.40
2018,10,21,08,47,8.50
2018,10,21,08,48,8.60
2018,10,21,08,49,8.60
2018,10,21,08,50,8.70
2018,10,21,08,51,8.80
2018,10,21,08,52,8.80
2018,10,21,08,53,8.90
2018,10,21,08,54,8.90
2018,10,21,08,55,9.00
2018,10,21,08,56,9.00
2018,10,21,08,57,9.10
2018,10,21,08,58,9.10
2018,10,21,08,59,9.20
2018,10,21,09,00,9.20
2018,10,21,09,01,9.20
2018,10,21,09,02,9.30
2018,10,21,09,03,9.30
2018,10,21,09,04,9.30
2018,10,21,09,05,9.40
2018,10,21,09,06,9.40
2018,10,21,09,07,9.40
2018,10,21,09,08,9.50
2018,10,21,09,09,9.50
2018,10,21,09,10,9.60
2018,10,21,09,11,9.60
2018,10,21,09,12,9.60
2018,10,21,09,13,9.70
2018,10,21,09,14,9.70
2018,10,21,09,15,9.70
2018,10,21,09,16,9.80
2018,10,21,09,17,9.80
2018,10,21,09,18,9.80
2018,10,21,09,19,9.80
2018,10,21,09,20,9.80
2018,10,21,09,21,9.80
2018,10,21,09,22,9.80
2018,10,21,09,23,9.80
2018,10,21,09,24,9.80
2018,10,21,09,25,9.80
2018,10,21,09,26,9.80
2018,10,21,09,27,9.80
2018,10,21,09,28,9.80
2018,10,21,09,29,9.80
2018,10,21,09,30,9.80
2018,10,21,09,31,9.80
2018,10,21,09,32,9.80
2018,10,21,09,33,9.90
2018,10,21,09,34,9.90
2018,10,21,09,35,9.90
2018,10,21,09,36,9.90
2018,10,21,09,37,10.00
2018,10,21,09,38,10.00
2018,10,21,09,39,10.00
2018,10,21,09,40,10.00
2018,10,21,09,41,10.10
2018,10,21,09,42,10.10
2018,10,21,09,43,10.10
2018,10,21,09,44,10.10
2018,10,21,09,45,10.20
2018,10,21,09,46,10.20
2018,10,21,09,47,10.30
2018,10,21,09,48,10.30
2018,10,21,09,49,10.40
2018,10,21,09,50,10.40
2018,10,21,09,51,10.50
2018,10,21,09,52,10.50
2018,10,21,09,53,10.60
2018,10,21,09,54,10.60
2018,10,21,09,55,10.60
2018,10,21,09,56,10.70
2018,10,21,09,57,10.70
2018,10,21,09,58,10.70
2018,10,21,09,59,10.80
2018,10,21,10,00,10.90
2018,10,21,10,01,11.00
2018,10,21,10,02,11.00
2018,10,21,10,03,11.00
2018,10,21,10,04,11.00
2018,10,21,10,05,11.00
2018,10,21,10,06,11.10
2018,10,21,10,07,11.10
2018,10,21,10,08,11.10
2018,10,21,10,09,11.20
2018,10,21,10,10,11.20
2018,10,21,10,11,11.20
2018,10,21,10,12,11.30
2018,10,21,10,13,11.30
2018,10,21,10,14,11.30
2018,10,21,10,15,11.40
2018,10,21,10,16,11.40
2018,10,21,10,17,11.50
2018,10,21,10,18,11.50
2018,10,21,10,19,11.60
2018,10,21,10,20,11.60
2018,10,21,10,21,11.70
2018,10,21,10,22,11.70
2018,10,21,10,23,11.70
2018,10,21,10,24,11.80
2018,10,21,10,25,11.80
2018,10,21,10,26,11.90
2018,10,21,10,27,12.00
2018,10,21,10,28,12.00
2018,10,21,10,29,12.10
2018,10,21,10,30,12.20
2018,10,21,10,31,12.20
2018,10,21,10,32,12.30
2018,10,21,10,33,12.30
2018,10,21,10,34,12.40
2018,10,21,10,35,12.40
2018,10,21,10,36,12.50
2018,10,21,10,37,12.60
2018,10,21,10,38,12.60
2018,10,21,10,39,12.70
2018,10,21,10,40,12.70
2018,10,21,10,41,12.80
2018,10,21,10,42,12.80
2018,10,21,10,43,12.80
2018,10,21,10,44,12.90
2018,10,21,10,45,12.80
2018,10,21,10,46,12.80
2018,10,21,10,47,12.80
2018,10,21,10,48,12.80
2018,10,21,10,49,12.80
2018,10,21,10,50,12.80
2018,10,21,10,51,12.80
2018,10,21,10,52,12.80
2018,10,21,10,53,12.80
2018,10,21,10,54,12.80
2018,10,21,10,55,12.80
2018,10,21,10,56,12.90
2018,10,21,10,57,12.90
2018,10,21,10,58,13.00
2018,10,21,10,59,13.00
2018,10,21,11,00,13.00
2018,10,21,11,01,13.00
2018,10,21,11,02,13.00
2018,10,21,11,03,13.10
2018,10,21,11,04,13.10
2018,10,21,11,05,13.10
2018,10,21,11,06,13.10
2018,10,21,11,07,13.20
2018,10,21,11,08,13.30
2018,10,21,11,09,13.40
2018,10,21,11,10,13.50
2018,10,21,11,11,13.50
2018,10,21,11,12,13.60
2018,10,21,11,13,13.60
2018,10,21,11,14,13.60
2018,10,21,11,15,13.60
2018,10,21,11,16,13.70
2018,10,21,11,17,13.70
2018,10,21,11,18,13.70
2018,10,21,11,19,13.60
2018,10,21,11,20,13.70
2018,10,21,11,21,13.70
2018,10,21,11,22,13.70
2018,10,21,11,23,13.70
2018,10,21,11,24,13.80
2018,10,21,11,25,13.80
2018,10,21,11,26,13.90
2018,10,21,11,27,13.90
2018,10,21,11,28,13.90
2018,10,21,11,29,13.90
2018,10,21,11,30,13.90
2018,10,21,11,31,14.00
2018,10,21,11,32,14.00
2018,10,21,11,33,13.90
2018,10,21,11,34,13.90
2018,10,21,11,35,13.90
2018,10,21,11,36,14.00
2018,10,21,11,37,14.10
2018,10,21,11,38,14.20
2018,10,21,11,39,14.20
2018,10,21,11,40,14.30
2018,10,21,11,41,14.30
2018,10,21,11,42,14.30
2018,10,21,11,43,14.20
2018,10,21,11,44,14.30
2018,10,21,11,45,14.30
2018,10,21,11,46,14.20
2018,10,21,11,47,14.20
2018,10,21,11,48,14.10
2018,10,21,11,49,14.00
2018,10,21,11,50,13.80
2018,10,21,11,51,13.80
2018,10,21,11,52,13.80
2018,10,21,11,53,13.80
2018,10,21,11,54,13.80
2018,10,21,11,55,13.80
2018,10,21,11,56,13.90
2018,10,21,11,57,13.90
2018,10,21,11,58,13.90
2018,10,21,11,59,13.90
2018,10,21,12,00,13.90
2018,10,21,12,01,14.00
2018,10,21,12,02,14.00
2018,10,21,12,03,14.00
2018,10,21,12,04,14.10
2018,10,21,12,05,14.10
2018,10,21,12,06,14.20
2018,10,21,12,07,14.20
2018,10,21,12,08,14.30
2018,10,21,12,09,14.30
2018,10,21,12,10,14.30
2018,10,21,12,11,14.40
2018,10,21,12,12,14.40
2018,10,21,12,13,14.40
2018,10,21,12,14,14.30
2018,10,21,12,15,14.20
2018,10,21,12,16,14.20
2018,10,21,12,17,14.20
2018,10,21,12,18,14.10
2018,10,21,12,19,14.00
2018,10,21,12,20,14.00
2018,10,21,12,21,14.00
2018,10,21,12,22,14.10
2018,10,21,12,23,14.10
2018,10,21,12,24,14.10
2018,10,21,12,25,14.20
2018,10,21,12,26,14.30
2018,10,21,12,27,14.30
2018,10,21,12,28,14.40
2018,10,21,12,29,14.50
2018,10,21,12,30,14.60
2018,10,21,12,31,14.60
2018,10,21,12,32,14.70
2018,10,21,12,33,14.70
2018,10,21,12,34,14.70
2018,10,21,12,35,14.80
2018,10,21,12,36,14.80
2018,10,21,12,37,14.80
2018,10,21,12,38,14.80
2018,10,21,12,39,14.80
2018,10,21,12,40,14.80
2018,10,21,12,41,14.90
2018,10,21,12,42,14.90
2018,10,21,12,43,14.90
2018,10,21,12,44,14.90
2018,10,21,12,45,14.80
2018,10,21,12,46,14.70
2018,10,21,12,47,14.60
2018,10,21,12,48,14.50
2018,10,21,12,49,14.50
2018,10,21,12,50,14.40
2018,10,21,12,51,14.40
2018,10,21,12,52,14.40
2018,10,21,12,53,14.40
2018,10,21,12,54,14.50
2018,10,21,12,55,14.60
2018,10,21,12,56,14.70
2018,10,21,12,57,14.80
2018,10,21,12,58,14.80
2018,10,21,12,59,14.80
2018,10,21,13,00,14.80
2018,10,21,13,01,14.80
2018,10,21,13,02,14.80
2018,10,21,13,03,14.80
2018,10,21,13,04,14.80
2018,10,21,13,05,14.80
2018,10,21,13,06,14.90
2018,10,21,13,07,15.00
2018,10,21,13,08,15.10
2018,10,21,13,09,15.20
2018,10,21,13,10,15.40
2018,10,21,13,11,15.50
2018,10,21,13,12,15.60
2018,10,21,13,13,15.60
2018,10,21,13,14,15.70
2018,10,21,13,15,15.70
2018,10,21,13,16,15.80
2018,10,21,13,17,15.80
2018,10,21,13,18,15.80
2018,10,21,13,19,15.90
2018,10,21,13,20,15.90
2018,10,21,13,21,16.00
2018,10,21,13,22,16.00
2018,10,21,13,23,15.90
2018,10,21,13,24,15.70
2018,10,21,13,25,15.70
2018,10,21,13,26,15.60
2018,10,21,13,27,15.60
2018,10,21,13,28,15.70
2018,10,21,13,29,15.80
2018,10,21,13,30,15.90
2018,10,21,13,31,16.00
2018,10,21,13,32,16.00
2018,10,21,13,33,16.10
2018,10,21,13,34,16.10
2018,10,21,13,35,16.20
2018,10,21,13,36,16.20
2018,10,21,13,37,16.20
2018,10,21,13,38,16.30
2018,10,21,13,39,16.30
2018,10,21,13,40,16.40
2018,10,21,13,41,16.40
2018,10,21,13,42,16.40
2018,10,21,13,43,16.40
2018,10,21,13,44,16.50
2018,10,21,13,45,16.50
2018,10,21,13,46,16.60
2018,10,21,13,47,16.70
2018,10,21,13,48,16.70
2018,10,21,13,49,16.70
2018,10,21,13,50,16.70
2018,10,21,13,51,16.70
2018,10,21,13,52,16.70
2018,10,21,13,53,16.70
2018,10,21,13,54,16.70
2018,10,21,13,55,16.70
2018,10,21,13,56,16.70
2018,10,21,13,57,16.60
2018,10,21,13,58,16.50
2018,10,21,13,59,16.30
2018,10,21,14,00,16.20
2018,10,21,14,01,16.20
2018,10,21,14,02,16.10
2018,10,21,14,03,16.10
2018,10,21,14,04,16.20
2018,10,21,14,05,16.20
2018,10,21,14,06,16.30
2018,10,21,14,07,16.40
2018,10,21,14,08,16.50
2018,10,21,14,09,16.40
2018,10,21,14,10,16.40
2018,10,21,14,11,16.30
2018,10,21,14,12,16.20
2018,10,21,14,13,16.10
2018,10,21,14,14,16.10
2018,10,21,14,15,16.10
2018,10,21,14,16,16.10
2018,10,21,14,17,16.10
2018,10,21,14,18,16.10
2018,10,21,14,19,16.20
2018,10,21,14,20,16.20
2018,10,21,14,21,16.30
2018,10,21,14,22,16.30
2018,10,21,14,23,16.40
2018,10,21,14,24,16.40
2018,10,21,14,25,16.40
2018,10,21,14,26,16.30
2018,10,21,14,27,16.30
2018,10,21,14,28,16.30
2018,10,21,14,29,16.30
2018,10,21,14,30,16.30
2018,10,21,14,31,16.30
2018,10,21,14,32,16.30
2018,10,21,14,33,16.30
2018,10,21,14,34,16.30
2018,10,21,14,35,16.20
2018,10,21,14,36,16.20
2018,10,21,14,37,16.20
2018,10,21,14,38,16.20
2018,10,21,14,39,16.10
2018,10,21,14,40,16.10
2018,10,21,14,41,16.10
2018,10,21,14,42,16.10
2018,10,21,14,43,16.20
2018,10,21,14,44,16.20
2018,10,21,14,45,16.30
2018,10,21,14,46,16.30
2018,10,21,14,47,16.40
2018,10,21,14,48,16.40
2018,10,21,14,49,16.40
2018,10,21,14,50,16.50
2018,10,21,14,51,16.50
2018,10,21,14,52,16.60
2018,10,21,14,53,16.60
2018,10,21,14,54,16.70
2018,10,21,14,55,16.70
2018,10,21,14,56,16.80
2018,10,21,14,57,16.70
2018,10,21,14,58,16.80
2018,10,21,14,59,16.80
2018,10,21,15,00,16.80
2018,10,21,15,01,16.80
2018,10,21,15,02,16.80
2018,10,21,15,03,16.80
2018,10,21,15,04,16.90
2018,10,21,15,05,16.90
2018,10,21,15,06,16.90
2018,10,21,15,07,17.00
2018,10,21,15,08,17.10
2018,10,21,15,09,17.10
2018,10,21,15,10,17.20
2018,10,21,15,11,17.20
2018,10,21,15,12,17.30
2018,10,21,15,13,17.30
2018,10,21,15,14,17.40
2018,10,21,15,15,17.40
2018,10,21,15,16,17.50
2018,10,21,15,17,17.50
2018,10,21,15,18,17.50
2018,10,21,15,19,17.50
2018,10,21,15,20,17.50
2018,10,21,15,21,17.60
2018,10,21,15,22,17.60
2018,10,21,15,23,17.60
2018,10,21,15,24,17.70
2018,10,21,15,25,17.70
2018,10,21,15,26,17.70
2018,10,21,15,27,17.70
2018,10,21,15,28,17.70
2018,10,21,15,29,17.70
2018,10,21,15,30,17.60
2018,10,21,15,31,17.60
2018,10,21,15,32,17.60
2018,10,21,15,33,17.50
2018,10,21,15,34,17.30
2018,10,21,15,35,17.10
2018,10,21,15,36,16.80
2018,10,21,15,37,16.50
2018,10,21,15,38,16.20
2018,10,21,15,39,15.90
2018,10,21,15,40,15.70
2018,10,21,15,41,15.60
2018,10,21,15,42,15.50
2018,10,21,15,43,15.40
2018,10,21,15,44,15.40
2018,10,21,15,45,15.30
2018,10,21,15,46,15.30
2018,10,21,15,47,15.30
2018,10,21,15,48,15.30
2018,10,21,15,49,15.30
2018,10,21,15,50,15.30
2018,10,21,15,51,15.30
2018,10,21,15,52,15.40
2018,10,21,15,53,15.40
2018,10,21,15,54,15.50
2018,10,21,15,55,15.50
2018,10,21,15,56,15.40
2018,10,21,15,57,15.30
2018,10,21,15,58,15.20
2018,10,21,15,59,15.10
2018,10,21,16,00,15.00
2018,10,21,16,01,14.90
2018,10,21,16,02,14.80
2018,10,21,16,03,14.80
2018,10,21,16,04,14.80
2018,10,21,16,05,14.80
2018,10,21,16,06,14.70
2018,10,21,16,07,14.70
2018,10,21,16,08,14.60
2018,10,21,16,09,14.60
2018,10,21,16,10,14.60
2018,10,21,16,11,14.60
2018,10,21,16,12,14.60
2018,10,21,16,13,14.50
2018,10,21,16,14,14.60
2018,10,21,16,15,14.60
2018,10,21,16,16,14.60
2018,10,21,16,17,14.60
2018,10,21,16,18,14.70
2018,10,21,16,19,14.70
2018,10,21,16,20,14.70
2018,10,21,16,21,14.60
2018,10,21,16,22,14.60
2018,10,21,16,23,14.60
2018,10,21,16,24,14.60
2018,10,21,16,25,14.50
2018,10,21,16,26,14.50
2018,10,21,16,27,14.40
2018,10,21,16,28,14.40
2018,10,21,16,29,14.30
2018,10,21,16,30,14.30
2018,10,21,16,31,14.20
2018,10,21,16,32,14.20
2018,10,21,16,33,14.10
2018,10,21,16,34,14.10
2018,10,21,16,35,14.00
2018,10,21,16,36,14.00
2018,10,21,16,37,14.00
2018,10,21,16,38,14.00
2018,10,21,16,39,14.10
2018,10,21,16,40,14.10
2018,10,21,16,41,14.10
2018,10,21,16,42,14.10
2018,10,21,16,43,14.00
2018,10,21,16,44,14.00
2018,10,21,16,45,13.90
2018,10,21,16,46,13.90
2018,10,21,16,47,13.90
2018,10,21,16,48,13.90
2018,10,21,16,49,13.80
2018,10,21,16,50,13.80
2018,10,21,16,51,13.80
2018,10,21,16,52,13.80
2018,10,21,16,53,13.80
2018,10,21,16,54,13.80
2018,10,21,16,55,13.80
2018,10,21,16,56,13.80
2018,10,21,16,57,13.80
2018,10,21,16,58,13.80
2018,10,21,16,59,13.80
2018,10,21,17,00,13.90
2018,10,21,17,01,13.90
2018,10,21,17,02,13.90
2018,10,21,17,03,13.90
2018,10,21,17,04,14.00
2018,10,21,17,05,14.00
2018,10,21,17,06,14.00
2018,10,21,17,07,14.00
2018,10,21,17,08,14.00
2018,10,21,17,09,14.00
2018,10,21,17,10,13.90
2018,10,21,17,11,13.90
2018,10,21,17,12,13.90
2018,10,21,17,13,13.90
2018,10,21,17,14,13.90
2018,10,21,17,15,13.90
2018,10,21,17,16,13.80
2018,10,21,17,17,13.80
2018,10,21,17,18,13.80
2018,10,21,17,19,13.80
2018,10,21,17,20,13.80
2018,10,21,17,21,13.80
2018,10,21,17,22,13.80
2018,10,21,17,23,13.80
2018,10,21,17,24,13.80
2018,10,21,17,25,13.80
2018,10,21,17,26,13.80
2018,10,21,17,27,13.80
2018,10,21,17,28,13.80
2018,10,21,17,29,13.80
2018,10,21,17,30,13.70
2018,10,21,17,31,13.70
2018,10,21,17,32,13.60
2018,10,21,17,33,13.50
2018,10,21,17,34,13.50
2018,10,21,17,35,13.40
2018,10,21,17,36,13.30
2018,10,21,17,37,13.30
2018,10,21,17,38,13.20
2018,10,21,17,39,13.20
2018,10,21,17,40,13.10
2018,10,21,17,41,13.10